Location: Tavaux
(49.7299°N, 3.9064°E)
Time: 04:29:35
(UTC+00:00)

Daily predictions for brighter satellites

Satellite Brightness Start Highest point End
(mag) Time Altitude Azimuth Time Altitude Azimuth Time Altitude Azimuth
H-2A R/B 3.8 02:58:46 10° NE 03:02:38 27° E 03:02:38 27° E
NOSS 3-1 (A) 4.0 03:23:44 70° S 03:23:44 70° S 03:31:40 10° SSE
Cosmos 1980 Rocket 3.3 03:23:21 36° SE 03:24:15 39° ESE 03:29:25 10° NE
USA 281 3.8 03:21:45 10° SE 03:28:05 53° NE 03:32:52 18° NNW
ATLAS 3B R/B 3.0 03:27:51 60° NNW 03:29:27 79° NE 03:37:13 10° SE
USA 267 3.7 03:31:42 10° ENE 03:37:54 48° N 03:38:49 45° NNW
Cosmos 1697 Rocket 3.0 03:42:45 57° NNE 03:42:45 57° NNE 03:47:14 10° NNE
ATLAS CENTAUR R/B 3.5 03:43:56 22° NE 03:43:56 22° NE 03:45:26 10° NE
Lacrosse 4 Rocket 3.3 03:49:00 24° SE 03:49:00 24° SE 03:50:40 10° SE
ATLAS 2AS CENTAUR R/B 2.6 03:47:22 73° WSW 03:48:09 83° NW 03:55:12 10° NE
Cosmos 1452 Rocket 3.9 03:52:05 54° NNE 03:52:05 54° NNE 03:56:09 10° NNE
Cosmos 1818 4.1 03:51:21 45° SSE 03:52:29 54° ESE 03:57:50 10° NE
USA 59 Rocket 1.3 03:53:36 33° NE 03:53:36 33° NE 03:57:28 10° ESE
Cosmos 2242 Rocket 4.5 03:54:08 31° SSE 03:55:50 48° E 04:00:07 10° NNE
CZ-2C R/B 3.5 03:54:04 10° N 03:56:42 33° N 03:56:42 33° N
Cosmos 2263 Rocket 2.0 04:00:00 82° SW 04:00:00 82° SW 04:05:32 10° SSE
Cosmos 2082 3.6 04:03:04 60° NNW 04:04:11 89° ENE 04:09:52 10° SSE
Cosmos 2266 Rocket 4.0 04:04:27 10° S 04:10:54 90° NW 04:17:20 10° N
BREEZE-M DEB (TANK) 2.9 04:14:05 50° E 04:14:05 50° E 04:17:55 10° E
NOSS 2-1 (E) 3.9 04:20:27 46° NNE 04:21:01 50° NE 04:25:39 10° ESE
SL-16 R/B 4.2 04:18:59 10° SSE 04:23:44 28° ESE 04:28:29 10° NE
USA 229 DEB 3.9 04:21:54 28° NW 04:26:18 88° SW 04:34:25 10° SE
USA 229 3.9 04:22:01 28° NW 04:26:25 88° SW 04:34:30 10° SE
Cosmos 1484 Rocket 3.1 04:24:12 10° NNE 04:27:41 56° E 04:30:40 13° S
Cosmos 304 Rocket 3.7 04:26:56 33° NNW 04:29:06 84° ENE 04:33:51 10° SSE
Cosmos 1655 Rocket 4.0 04:24:02 10° S 04:30:25 84° E 04:36:47 10° N
IRAS Rocket 4.1 04:28:04 10° NNE 04:33:35 74° WNW 04:39:06 10° SSW
S3M 4.0 04:29:10 10° NNW 04:35:14 53° W 04:41:12 10° SSW
Cosmos 2219 3.6 04:35:43 41° WSW 04:35:43 41° WSW 04:40:47 10° S
SKYMED 2 4.0 04:32:00 10° SSE 04:36:17 63° ENE 04:40:35 10° N
BREEZE-M DEB (TANK) 3.9 04:39:16 15° SSE 04:39:53 16° SSE 04:41:47 10° ESE
H-2A R/B 2.2 04:37:48 10° N 04:42:34 45° WNW 04:43:09 43° W
BREEZE-M DEB (TANK) 3.4 04:45:30 33° SSW 04:45:46 34° S 04:51:18 10° ESE
Cosmos 1328 4.1 04:43:29 10° S 04:47:08 60° E 04:50:48 10° NNE
SL-8 R/B 4.2 04:49:43 26° SW 04:52:06 52° SSE 04:56:43 10° E
Meteor 1-24 Rocket 3.6 04:46:51 10° SSW 04:52:13 55° WNW 04:57:28 10° N
ARIANE 5 R/B 4.1 04:48:34 10° NNE 04:53:15 37° E 04:57:58 10° SSE
ARGOS 3.1 04:48:19 10° NNE 04:53:46 79° WNW 04:59:11 10° SSW
Cosmos 2278 4.4 04:48:53 10° S 04:54:21 54° ESE 04:59:51 10° NE
Thor Agena Rocket 3.5 04:50:10 10° N 04:55:20 63° WNW 05:00:25 10° SSW
Cosmos 2221 Rocket 4.3 04:51:19 10° S 04:55:36 56° E 04:59:58 10° NNE
Meteor 2-20 Rocket 4.4 04:53:29 10° NNW 04:59:15 54° W 05:04:50 10° SSW
Cosmos 1844 Rocket 3.0 04:53:57 10° NNW 04:59:36 68° ENE 05:05:12 10° SE
NOSS 2-1 (C) 3.3 04:58:22 35° NW 04:59:55 79° SW 05:04:52 10° SE
Cosmos 2322 Rocket 3.9 04:58:10 10° S 05:03:15 35° ESE 05:08:20 10° NE
Sich 1 Rocket 3.5 05:00:34 10° N 05:05:02 85° W 05:09:33 10° S
H-2A R/B 3.6 05:04:14 10° NNE 05:06:30 31° E 05:08:44 10° SSE
IRS-1D 4.1 05:03:44 10° N 05:08:06 31° WNW 05:09:55 24° W
Cosmos 1980 Rocket 2.5 05:05:10 23° WSW 05:08:13 42° NW 05:13:33 10° NNE
YAOGAN 11 4.0 05:06:08 10° SSE 05:10:29 88° WSW 05:14:57 10° NNW
Cosmos 2369 3.8 05:07:06 12° SW 05:12:16 53° NW 05:17:50 10° NNE
USA 281 3.6 05:06:43 10° S 05:12:45 39° WSW 05:18:51 10° NW
Cosmos 1777 Rocket 4.5 05:08:34 10° NNW 05:13:50 64° ENE 05:19:03 10° SE
Cosmos 1378 Rocket 3.5 05:11:27 10° SSW 05:15:49 64° WNW 05:20:12 10° N
FengYun 1-2 T 4.2 05:11:08 10° NNE 05:16:46 74° WNW 05:22:23 10° SSW
Cosmos 1674 Rocket 3.4 05:13:30 10° SSW 05:17:48 75° W 05:22:09 10° N
Cosmos 1025 Rocket 3.7 05:14:13 10° S 05:18:21 56° E 05:22:32 10° NNE
Cosmos 371 Rocket 4.0 05:16:34 20° NW 05:19:01 32° WSW 05:23:18 10° SSW
ATLAS CENTAUR R/B 2.3 05:18:24 24° NW 05:19:05 25° NW 05:22:21 10° NNE
ATLAS 3B R/B 3.7 05:15:08 18° WNW 05:19:39 32° WSW 05:26:11 10° S
USA 267 3.4 05:14:00 10° ESE 05:20:30 73° NNE 05:26:09 14° NW
Okean 2 Rocket 3.1 05:16:15 10° NNW 05:20:40 57° W 05:25:02 10° S
Meteor 2-5 Rocket 4.2 05:15:33 10° SW 05:20:48 36° WNW 05:26:01 10° N
ARIANE 6 FM1 Upper Stage 3.1 05:18:07 10° SSW 05:22:17 65° SE 05:26:32 10° NE
Cosmos 1939 Rocket 3.6 05:19:58 10° N 05:23:08 26° WNW 05:24:26 21° W
Cosmos 482 Debris 4.3 05:20:32 23° W 05:23:15 70° NNW 05:26:51 10° ENE
Cosmos 1503 Rocket 4.1 05:18:04 10° NNW 05:23:26 80° ENE 05:28:41 10° SSE
Lacrosse 4 Rocket 3.2 05:24:51 15° WSW 05:24:51 15° WSW 05:26:33 10° SW
Cosmos 1486 Rocket 3.9 05:19:00 10° NNW 05:24:11 69° WSW 05:29:21 10° SSE
COSMO-SKYMED 1 2.9 05:20:14 10° S 05:24:23 44° W 05:28:34 10° NNW
Cosmos 1992 Rocket 4.0 05:19:40 10° SW 05:24:48 58° WNW 05:29:59 10° NNE
Cosmos 332 Rocket 3.7 05:19:55 10° NNW 05:24:49 78° WSW 05:29:40 10° SSE
NOAA 12 4.1 05:20:17 10° NNE 05:25:38 80° WNW 05:30:57 10° SSW
Cosmos 1697 Rocket 4.0 05:24:29 18° WNW 05:26:23 21° NW 05:30:38 10° N
SL-08 R/B 4.1 05:23:02 10° SE 05:27:39 53° ENE 05:32:14 10° N
Cosmos 1844 3.7 05:22:38 10° NNW 05:28:19 86° WSW 05:34:03 10° SSE
Cosmos 2098 Rocket 2.5 05:28:21 10° NNW 05:32:14 62° W 05:35:27 10° S
NOSS 2-1 (D) 4.0 05:29:47 19° WNW 05:32:14 43° SW 05:37:05 10° SSE
Cosmos 2227 4.5 05:29:03 10° NW 05:34:28 48° WSW 05:39:55 10° S
SJ-11-01 4.2 05:31:18 10° N 05:35:56 66° WNW 05:40:32 10° SSW
CZ-2C R/B 4.2 05:34:07 10° NNW 05:35:57 13° NW 05:35:57 13° NW
Cosmos 1818 4.2 05:32:02 14° W 05:36:16 38° NW 05:41:24 10° NNE
CRYOSAT 2 4.3 05:34:44 10° S 05:39:34 66° W 05:44:28 10° N
ATLAS 2AS CENTAUR R/B 3.5 05:34:49 15° W 05:40:00 34° NNW 05:46:12 10° NE
USA 59 Rocket 0.8 05:39:52 16° WNW 05:42:42 37° SW 05:47:33 10° SSE
Cosmos 2263 Rocket 3.7 05:41:46 14° W 05:42:54 14° W 05:45:49 10° SW
Cosmos 1455 Rocket 3.2 05:39:07 10° N 05:43:31 79° E 05:47:50 10° SSE
NOSS 3 (A) 2.6 05:42:42 21° SW 05:43:33 77° NW 05:45:07 10° NE
Nadezhda 1 Rocket 3.9 05:38:06 10° N 05:44:17 85° W 05:50:22 10° S
CBERS-1 4.5 05:41:15 10° N 05:45:59 39° WNW 05:50:42 10° SW
Cosmos 2237 4.2 05:42:12 10° SW 05:47:49 64° WNW 05:53:30 10° NNE
ERS-1 4.5 05:45:07 10° NNE 05:50:13 87° WNW 05:55:13 10° SSW
Cosmos 1869 3.3 05:47:47 10° N 05:51:37 83° E 05:55:26 10° S
SL-08 R/B 4.5 05:45:39 10° SSW 05:51:42 63° WNW 05:57:49 10° N
Cosmos 1437 Rocket 3.6 05:52:03 10° SW 05:55:04 25° WNW 05:58:08 10° NNW
Cosmos 2360 Rocket 2.6 05:49:34 10° SSW 05:55:08 68° ESE 06:00:44 10° NNE
Meteor 2-1 Rocket 4.3 05:49:52 10° NNW 05:55:41 86° ENE 06:01:19 10° SSE
SKYMED 3 4.5 05:52:02 10° SSE 05:56:01 81° ENE 06:00:01 10° NNW
Cosmos 1709 Rocket 4.5 05:52:27 10° S 05:58:42 70° E 06:04:56 10° NNE
Cosmos 1484 Rocket 4.3 05:58:57 10° NNW 06:00:46 14° WNW 06:02:35 10° W
Okean 1 Rocket 3.8 05:58:07 10° NNW 06:02:06 32° W 06:06:04 10° SSW
Cosmos 1606 2.6 05:58:52 10° NNW 06:02:08 46° W 06:05:21 10° S
Cosmos 1354 Rocket 4.1 05:58:08 10° NNW 06:03:25 67° WSW 06:08:38 10° S
BREEZE-M DEB (TANK) 2.4 05:59:44 10° W 06:04:55 74° SSW 06:07:02 10° ESE
Cosmos 2084 Rocket 3.5 06:01:26 10° WSW 06:05:41 59° NW 06:09:50 10° NE
SL-16 R/B 2.3 06:01:55 10° SW 06:07:30 56° NW 06:13:06 10° NNE
Cosmos 292 Rocket 3.8 06:04:11 10° NNW 06:09:01 80° WSW 06:13:49 10° SSE
Gbstr 26 Del rocket 3.6 06:06:01 10° WSW 06:10:50 88° NNW 06:16:54 10° ENE
CZ-2D R/B 3.2 06:07:35 10° N 06:11:01 48° WNW 06:14:24 10° SSW
EXPRESS MD2 3.2 06:11:27 10° WSW 06:14:21 46° SSE 06:16:31 10° E
ADEOS Rocket 3.4 06:07:26 10° NNE 06:14:49 86° WNW 06:21:25 10° SSW
Cosmos 1763 Rocket 4.3 06:10:17 10° S 06:15:23 60° ESE 06:20:36 10° NNE
